Wind_Speed
51 50 48 47 46 44 43 41 40 39 38 37 37 37 36 36 35 35 36 36 36 36 36 35 36 37 39 40 41 42 43 44 45 46 47 48 50 52 54 55 57 58 59
52 51 49 48 47 45 43 42 41 40 39 38 38 37 37 36 36 36 36 36 36 36 36 36 37 38 39 40 41 42 43 44 45 46 47 49 51 52 54 56 57 59 60
52 51 50 48 47 45 44 43 41 40 40 39 38 38 38 37 37 36 36 36 37 36 36 36 37 39 39 40 41 42 43 43 45 46 47 49 51 53 55 57 58 60 61
52 51 50 48 46 45 44 43 42 41 40 40 39 39 39 38 38 37 37 36 36 36 36 37 38 38 39 39 41 41 42 44 45 46 47 49 51 53 55 57 58 60 61
51 50 49 48 47 45 45 44 43 41 41 40 40 39 39 38 37 37 36 36 36 36 36 37 37 38 38 39 40 41 42 43 45 46 48 50 52 54 56 57 58 59 61
52 51 49 49 48 47 46 45 44 43 42 41 40 40 39 38 37 36 35 35 36 36 36 36 37 37 38 38 39 41 42 43 44 46 48 50 52 54 56 57 58 59 60
51 51 50 49 49 48 48 47 45 44 43 41 41 40 39 38 37 36 36 36 36 35 35 36 36 37 37 38 40 41 42 42 44 46 48 50 52 54 56 57 58 59 59
51 51 49 48 49 48 48 47 46 45 43 42 41 40 39 38 37 36 36 36 36 35 35 36 36 36 37 38 39 40 40 41 44 46 48 50 52 53 55 56 58 58 59
51 50 50 49 49 48 47 46 46 45 44 42 40 40 39 38 37 36 36 36 35 35 35 35 35 35 36 37 38 38 40 42 44 46 48 50 51 53 55 56 57 57 58
50 50 49 50 49 48 47 46 45 44 43 42 40 39 38 37 36 36 35 35 35 34 35 35 34 34 35 36 37 38 39 42 44 46 48 49 51 53 55 56 56 56 57
50 50 51 50 49 48 47 46 44 44 43 41 40 39 37 36 36 35 35 35 34 34 34 33 33 33 34 35 36 38 39 42 44 46 47 49 50 53 55 55 55 56 56
51 50 50 50 49 48 47 46 44 43 41 39 38 37 36 35 35 35 35 33 33 32 32 31 32 33 34 34 36 37 40 42 44 45 47 48 50 53 54 54 55 56 56
50 51 50 49 48 47 46 45 43 42 40 39 37 36 36 35 34 34 33 31 31 31 31 31 31 32 33 34 35 38 40 41 43 45 46 48 50 52 54 54 55 56 57
49 49 49 49 48 46 45 44 43 41 40 38 37 36 35 34 33 32 31 30 30 30 30 30 30 31 32 33 36 37 39 41 43 44 46 48 50 52 53 54 54 55 55
48 48 49 48 48 47 45 44 42 40 39 38 37 36 34 33 32 31 30 29 29 28 28 29 29 30 32 33 35 37 39 41 42 44 46 48 50 51 52 53 53 54 53
46 47 47 47 46 45 44 43 41 39 39 38 37 36 34 33 31 30 29 28 27 27 27 28 29 30 31 33 35 36 39 40 42 44 46 48 50 51 52 53 53 51 51
45 46 45 45 45 45 43 41 40 38 38 37 37 35 34 33 31 29 28 27 25 26 26 27 29 30 31 33 34 36 38 40 42 44 45 47 49 50 51 52 51 50 49
44 45 45 45 45 44 43 41 40 38 36 36 35 34 33 31 29 27 26 25 25 25 26 27 28 29 31 32 34 36 38 40 42 43 44 46 48 49 50 50 49 47 47
43 44 44 44 44 43 41 40 38 37 36 35 34 33 32 30 28 27 25 25 25 25 26 27 28 29 31 32 33 36 38 40 41 42 44 46 47 48 49 49 47 45 45
42 42 42 43 42 41 40 39 37 36 35 34 33 31 30 29 27 26 25 25 25 26 26 26 28 29 30 32 34 36 38 39 40 42 43 45 46 47 48 46 45 44 45
41 41 41 41 40 40 40 39 37 36 35 33 32 30 29 29 28 26 25 24 25 26 26 27 28 29 30 32 34 35 37 38 40 42 43 45 46 47 46 44 43 43 44
40 40 40 40 40 39 38 38 37 35 34 33 31 30 29 28 27 26 25 25 25 25 26 27 28 29 31 32 33 34 36 38 40 41 42 44 45 45 45 44 43 43 43
38 39 38 38 38 38 38 37 36 35 34 32 30 29 28 27 25 24 24 25 25 25 25 26 28 30 31 31 32 34 36 37 39 41 42 44 44 44 44 43 43 42 42
37 37 36 36 36 36 36 35 34 34 33 32 31 29 28 26 25 24 24 25 25 25 26 27 28 29 29 30 32 34 35 36 38 40 42 43 43 44 44 43 41 40 40
37 36 35 36 35 35 35 34 33 33 32 32 30 29 27 26 25 24 24 23 23 24 26 27 28 28 29 30 32 33 34 36 38 40 42 42 43 43 42 41 39 39 39
36 37 36 35 34 34 34 34 33 32 31 30 29 28 26 26 25 24 23 23 23 24 25 27 27 27 28 29 31 32 34 35 38 40 41 41 41 41 41 39 38 37 37
Wind_Direction
220 220 222 223 225 227 229 231 234 236 239 242 245 249 252 256 259 263 268 272 276 280 283 287 290 293 296 299 301 304 307 309 311 313 314 315 316 318 319 319 320 320 320
221 221 222 224 226 227 229 231 234 237 239 242 244 248 252 256 260 264 268 272 276 279 282 285 288 292 295 298 301 304 307 309 311 313 315 316 317 319 319 320 320 321 321
221 221 222 223 225 227 229 231 234 236 239 241 243 248 252 256 259 263 268 272 276 279 282 285 288 292 294 297 301 304 306 309 312 314 315 317 318 319 320 321 321 322 322
221 222 223 224 225 227 229 231 233 236 239 241 244 248 252 256 259 262 267 271 275 278 281 285 288 291 294 297 301 304 307 310 312 314 316 317 318 320 321 321 322 322 323
221 222 223 225 225 226 228 231 233 236 239 242 245 249 252 255 258 263 266 270 273 277 281 284 287 291 294 298 302 305 308 310 312 314 316 318 319 321 321 322 322 323 324
222 223 223 225 225 227 228 230 233 236 238 241 245 248 252 255 258 261 265 268 273 277 280 283 287 291 294 298 301 305 308 310 313 315 317 319 320 321 322 323 324 324 324
223 223 223 224 225 226 228 230 234 236 239 242 245 249 251 254 257 260 264 268 272 276 280 283 287 291 294 298 302 305 307 311 314 315 318 320 321 322 323 324 325 325 326
223 223 223 223 224 225 229 231 233 236 239 242 245 248 251 254 257 260 264 269 272 276 279 283 287 291 295 298 302 305 308 312 314 317 319 320 321 323 324 325 326 326 327
224 223 224 225 225 227 229 231 234 236 238 242 246 248 250 254 257 261 264 268 272 275 278 283 287 291 295 298 302 306 309 312 315 317 319 321 323 324 325 326 327 328 329
225 225 225 225 226 228 231 233 234 237 240 242 245 248 251 254 258 262 264 268 271 275 279 283 287 292 295 300 304 307 309 313 316 319 320 322 324 325 326 327 328 328 329
225 226 226 227 228 229 231 234 235 238 239 241 245 248 250 253 258 261 264 268 271 274 279 283 287 292 296 301 304 307 310 314 317 320 321 323 325 327 327 328 329 329 330
225 226 226 227 228 229 231 233 235 238 239 241 245 247 249 253 256 260 264 267 270 275 279 282 287 292 297 301 305 308 312 315 318 320 322 324 326 327 328 329 329 330 331
225 226 227 227 227 229 231 233 236 237 239 242 245 247 251 254 257 262 265 266 270 274 278 283 288 293 298 302 305 309 313 316 319 321 322 324 326 328 329 329 330 331 332
225 227 227 228 228 229 231 233 235 237 239 241 243 247 251 254 258 260 264 267 270 274 279 284 289 294 299 303 306 310 314 317 319 321 323 325 327 328 329 330 331 332 333
226 226 228 228 229 229 231 232 233 235 238 240 243 246 250 253 256 258 262 265 269 273 280 286 291 295 300 304 308 311 315 318 320 322 323 325 328 329 330 331 331 332 334
225 226 227 228 228 229 229 230 232 235 237 240 242 244 247 250 253 256 259 263 268 275 282 287 292 296 301 305 309 312 316 318 321 322 324 326 328 329 330 331 332 333 334
224 224 225 226 226 226 227 228 230 233 236 238 240 242 245 249 251 254 258 263 270 277 283 288 293 298 303 306 309 313 316 319 321 323 325 327 329 331 331 332 333 334 335
223 223 223 224 224 225 226 228 229 231 233 236 238 241 244 246 248 252 256 263 271 278 285 290 294 299 303 307 311 314 317 321 323 324 326 328 330 331 332 333 334 335 336
222 223 223 222 223 224 224 226 228 228 230 233 236 240 242 243 247 251 258 266 273 280 285 289 295 299 304 307 312 315 319 321 323 325 327 329 331 332 332 333 334 336 338
222 222 222 222 223 223 223 224 225 225 229 231 234 238 241 244 248 254 260 266 273 280 285 289 295 300 304 308 313 316 319 321 323 326 328 330 331 332 333 333 335 336 338
219 220 220 221 222 223 224 224 224 226 228 230 233 236 241 245 249 254 261 267 274 281 285 289 295 300 305 310 313 316 319 322 324 326 328 330 332 333 333 334 334 335 337
218 219 220 221 220 221 222 223 225 226 227 230 234 237 241 245 249 255 261 267 274 281 286 290 295 301 306 310 313 316 320 322 324 326 328 330 332 333 333 333 334 335 337
216 217 218 218 219 220 220 222 224 226 230 232 235 238 242 245 249 255 260 265 272 279 285 291 297 303 306 309 313 317 320 322 324 326 328 330 332 333 333 333 333 334 336
215 215 214 216 218 220 220 222 225 229 231 233 236 239 242 244 248 254 259 264 271 278 285 293 299 303 306 310 314 317 320 322 324 327 328 330 331 332 333 333 334 335 337
213 212 214 216 218 220 222 224 226 228 229 232 234 237 242 245 249 255 261 266 272 279 286 293 298 301 305 310 313 317 319 322 324 327 329 330 331 332 333 334 335 335 337
212 212 214 216 218 220 222 224 224 226 228 230 232 236 241 245 248 253 261 267 274 281 286 292 297 300 305 309 313 316 319 322 324 327 329 330 331 333 334 335 335 335 337
Height
5669 5677 5684 5691 5697 5702 5707 5712 5716 5720 5724 5727 5730 5732 5734 5736 5737 5738 5739 5739 5738 5738 5736 5735 5732 5730 5727 5723 5719 5715 5710 5705 5700 5694 5687 5680 5673 5665 5657 5649 5640 5631 5621
5661 5668 5675 5682 5688 5693 5699 5704 5708 5712 5716 5719 5722 5725 5727 5728 5729 5730 5731 5731 5731 5730 5729 5727 5725 5722 5719 5715 5711 5707 5702 5697 5691 5686 5679 5672 5664 5656 5648 5639 5630 5620 5611
5652 5659 5666 5673 5679 5685 5691 5695 5700 5704 5708 5711 5714 5717 5719 5720 5722 5722 5723 5723 5723 5722 5721 5719 5717 5714 5711 5707 5703 5699 5694 5689 5683 5677 5670 5663 5656 5647 5638 5629 5619 5609 5599
5643 5650 5658 5665 5671 5677 5682 5687 5691 5696 5699 5703 5706 5708 5710 5712 5713 5714 5715 5715 5715 5714 5713 5711 5709 5706 5703 5700 5696 5691 5686 5681 5675 5669 5662 5655 5647 5638 5629 5620 5610 5599 5589
5634 5641 5649 5656 5662 5668 5673 5678 5683 5687 5691 5694 5697 5700 5702 5704 5705 5706 5707 5707 5707 5706 5705 5703 5701 5698 5695 5692 5688 5683 5678 5673 5667 5660 5654 5646 5638 5629 5621 5611 5601 5591 5580
5625 5632 5640 5646 5653 5659 5664 5669 5674 5678 5682 5685 5688 5691 5693 5696 5697 5698 5698 5699 5699 5698 5697 5695 5693 5690 5687 5684 5680 5675 5670 5665 5659 5653 5646 5638 5630 5621 5612 5601 5591 5583 5573
5616 5623 5630 5636 5643 5649 5655 5660 5665 5669 5673 5676 5680 5682 5685 5687 5688 5689 5690 5691 5691 5690 5689 5687 5685 5683 5679 5676 5672 5667 5662 5656 5651 5645 5637 5629 5621 5613 5604 5593 5582 5570 5560
5607 5614 5620 5627 5633 5639 5645 5650 5655 5660 5664 5668 5671 5674 5676 5678 5679 5681 5682 5682 5682 5682 5681 5679 5677 5674 5671 5668 5664 5659 5654 5649 5643 5637 5629 5621 5612 5603 5594 5583 5573 5562 5550
5597 5604 5611 5617 5624 5630 5635 5641 5646 5650 5655 5658 5662 5665 5667 5669 5671 5672 5673 5674 5674 5674 5673 5671 5669 5667 5664 5660 5656 5652 5646 5641 5634 5627 5620 5612 5603 5594 5585 5575 5564 5554 5543
5588 5595 5602 5608 5614 5620 5626 5631 5636 5641 5645 5649 5653 5656 5659 5661 5663 5664 5665 5666 5666 5666 5665 5663 5662 5659 5656 5652 5648 5644 5638 5633 5626 5619 5612 5604 5595 5586 5576 5567 5556 5545 5535
5578 5585 5592 5599 5605 5611 5617 5622 5627 5632 5636 5640 5644 5647 5650 5653 5654 5656 5657 5658 5658 5657 5657 5655 5654 5651 5648 5644 5640 5636 5631 5625 5618 5611 5604 5596 5587 5578 5568 5558 5548 5537 5527
5569 5576 5582 5589 5596 5602 5608 5613 5618 5623 5627 5632 5635 5639 5641 5644 5646 5647 5649 5650 5650 5650 5649 5647 5646 5643 5640 5637 5633 5628 5623 5617 5611 5603 5596 5588 5579 5570 5560 5550 5539 5529 5519
5559 5566 5572 5579 5586 5592 5598 5604 5609 5614 5619 5623 5627 5631 5634 5636 5638 5640 5641 5641 5642 5642 5641 5640 5638 5635 5632 5629 5625 5620 5615 5609 5603 5596 5588 5580 5572 5563 5552 5542 5531 5521 5510
5549 5556 5563 5570 5576 5583 5589 5595 5600 5605 5610 5615 5619 5623 5625 5628 5630 5632 5633 5634 5634 5634 5633 5632 5630 5628 5625 5621 5617 5613 5608 5602 5595 5588 5581 5573 5564 5555 5545 5535 5525 5514 5503
5540 5547 5553 5560 5567 5574 5580 5586 5592 5598 5603 5607 5611 5615 5618 5620 5623 5624 5625 5626 5626 5627 5626 5624 5623 5620 5618 5614 5610 5605 5600 5594 5588 5581 5573 5565 5556 5547 5537 5527 5517 5507 5497
5530 5537 5544 5551 5558 5565 5571 5577 5583 5589 5593 5598 5603 5606 5609 5612 5614 5616 5618 5619 5619 5619 5619 5617 5615 5613 5610 5607 5603 5598 5593 5587 5580 5573 5566 5558 5549 5540 5530 5520 5510 5500 5491
5521 5528 5535 5542 5549 5555 5562 5569 5575 5580 5585 5590 5594 5598 5602 5604 5606 5608 5610 5611 5611 5612 5611 5610 5608 5606 5603 5599 5595 5591 5585 5579 5573 5566 5558 5550 5541 5532 5523 5513 5503 5494 5484
5511 5519 5526 5533 5540 5547 5553 5560 5566 5572 5577 5582 5587 5590 5594 5597 5599 5601 5603 5604 5604 5604 5604 5603 5601 5598 5595 5592 5588 5583 5578 5572 5565 5558 5550 5542 5534 5525 5516 5507 5497 5488 5479
5502 5510 5517 5524 5532 5538 5545 5552 5558 5564 5570 5575 5579 5583 5586 5589 5591 5594 5596 5597 5598 5597 5597 5595 5594 5591 5588 5585 5580 5575 5570 5564 5557 5550 5543 5535 5527 5518 5509 5500 5491 5482 5474
5494 5501 5508 5516 5523 5530 5537 5544 5550 5556 5562 5567 5572 5576 5579 5582 5584 5587 5589 5590 5590 5590 5589 5588 5586 5584 5581 5577 5573 5568 5562 5557 5550 5543 5536 5528 5520 5512 5503 5494 5485 5477 5469
5486 5493 5501 5508 5516 5523 5530 5536 5543 5549 5554 5559 5564 5568 5571 5575 5578 5580 5582 5582 5583 5583 5582 5581 5579 5576 5573 5569 5565 5560 5555 5549 5543 5536 5529 5522 5514 5505 5497 5488 5480 5472 5464
5479 5486 5493 5501 5508 5515 5522 5528 5535 5541 5546 5551 5556 5560 5564 5567 5570 5573 5574 5575 5576 5576 5575 5573 5571 5569 5566 5562 5558 5553 5548 5542 5536 5530 5523 5515 5507 5499 5491 5483 5475 5467 5460
5471 5479 5486 5494 5501 5508 5514 5521 5527 5534 5539 5544 5548 5553 5556 5560 5563 5565 5566 5568 5568 5568 5567 5566 5564 5561 5558 5555 5551 5546 5541 5536 5530 5523 5516 5509 5501 5493 5485 5477 5470 5462 5455
5465 5472 5479 5487 5494 5501 5507 5514 5520 5526 5531 5536 5541 5546 5549 5553 5555 5557 5559 5560 5561 5560 5559 5558 5556 5554 5551 5548 5544 5539 5534 5529 5523 5516 5510 5502 5495 5487 5479 5471 5464 5457 5450
5458 5466 5473 5480 5487 5494 5500 5506 5513 5518 5524 5529 5534 5538 5542 5545 5548 5550 5552 5552 5553 5553 5552 5551 5549 5547 5544 5541 5537 5532 5528 5522 5516 5510 5503 5496 5488 5481 5473 5466 5459 5452 5446
5452 5460 5467 5474 5481 5487 5494 5500 5506 5511 5517 5522 5527 5531 5534 5538 5540 5543 5544 5545 5546 5546 5545 5544 5542 5539 5537 5534 5530 5526 5521 5515 5510 5503 5496 5489 5482 5475 5468 5461 5454 5448 5441